Regional Weather Roundup
Issued by NWS

Home | Current Version | Previous Version | Text Only | Print | Product List | Glossary Off
Versions: 1 2 3 4 5 6 7 8 9 10 11 12 13 14 15 16 17 18 19 20 21 22 23 24 25 26 27 28 29 30 31 32 33 34 35 36 37 38 39 40 41 42 43 44 45 46 47 48 49 50

000
ASUS45 KCYS 102210
RWRWY

WYOMING REGIONAL WEATHER ROUNDUP
NATIONAL WEATHER SERVICE CHEYENNE WY
300 PM MST SUN DEC 10 2017

NOTE:  "FAIR" INDICATES FEW OR NO CLOUDS BELOW 12,000 FEET
WITH NO SIGNIFICANT WEATHER AND/OR OBSTRUCTIONS TO VISIBILITY.

WYZ001-102300-
YELLOWSTONE NATIONAL PARK

CITY           SKY/WX    TMP DP  RH WIND       PRES   REMARKS
LK YELLOWSTONE   N/A     26  22  84 CALM      30.57R
W YELLOWSTONE  NOT AVBL

$$
WYZ002>013-054>058-071-098>099-102300-
NORTHERN WYOMING

CITY           SKY/WX    TMP DP  RH WIND       PRES   REMARKS
JACKSON        FAIR      31  16  54 CALM      30.57F
CODY           FAIR      39  18  42 NE8       30.37R WCI  33
GREYBULL       FAIR      43  15  32 N3        30.36R
WORLAND        FAIR      46  19  34 CALM      30.34F
SHERIDAN       FAIR      58  12  16 W10       30.25F
BUFFALO        FAIR      58   3  11 CALM      30.29S
GILLETTE       FAIR      52  14  22 W9        30.25S
HULETT         FAIR      45  19  36 SW10      30.23S
NEWCASTLE      FAIR      52   7  16 NW6       30.25S

$$
WYZ014>020-022>026-101>103-102300-
CENTRAL WYOMING

CITY           SKY/WX    TMP DP  RH WIND       PRES   REMARKS
BIG PINEY      FAIR      49   1  14 CALM      30.48S
PINEDALE       FAIR      46  -2  13 W20G30    30.47S
DUBOIS         FAIR      46  -8  10 NW20G28   30.43F
LANDER         FAIR      35  18  49 NW5       30.38R WCI  31
RIVERTON       FAIR      36  17  46 CALM      30.40F
CASPER         FAIR      40  19  43 SW22G33   30.33F WCI  30
DOUGLAS        FAIR      48  20  32 NW13      30.30F

$$
WYZ021-027>030-104>119-102300-
SOUTHERN WYOMING

CITY           SKY/WX    TMP DP  RH WIND       PRES   REMARKS
EVANSTON       FAIR      46   6  19 SW8       30.53S
FORT BRIDGER   FAIR      49   5  16 W15       30.53S
ROCK SPRINGS   FAIR      46   7  20 W14       30.47F
DIXON          FAIR      39  18  43 CALM      30.54F
RAWLINS        FAIR      44  12  27 VRB3      30.46F
SARATOGA       FAIR      37  23  56 S5        30.48F WCI  34
LARAMIE        FAIR      44  12  27 NE8       30.40F
CHEYENNE       FAIR      54  -4   9 W12G22    30.34F
TORRINGTON     FAIR      58   5  12 W13       30.27F
PINE BLUFFS    FAIR      55   1  11 NW16G22   30.33S

$$



USA.gov is the U.S. government's official web portal to all federal, state and local government web resources and services.